Regional Weather Roundup
Issued by NWS Newport/Morehead, NC

Current Version | Previous Version | Graphics & Text | Print | Product List | Glossary Off
Versions: 1 2 3 4 5 6 7 8 9 10 11 12 13 14 15 16 17 18 19 20 21 22 23 24 25 26 27 28 29 30 31 32 33 34 35 36 37 38 39 40 41 42 43 44 45 46 47 48 49 50

839
ASUS42 KMHX 101313
RWRMHX
WEATHER ROUNDUP FOR EASTERN NORTH CAROLINA
NATIONAL WEATHER SERVICE NEWPORT/MOREHEAD CITY NC
800 AM EST SUN DEC 10 2017

NOTE: "FAIR" INDICATES FEW OR NO CLOUDS BELOW 12,000 FEET
WITH NO SIGNIFICANT WEATHER AND/OR OBSTRUCTIONS TO VISIBILITY

NCZ015>017-031-032-045>047-102-103-101400-
NORTH COAST

CITY           SKY/WX    TMP DP  RH WIND       PRES   REMARKS
EDENTON        CLEAR     36  32  86 W6        30.12R
ELIZABETH CITY CLEAR     34  32  92 W9        30.10R
KITTY HAWK     PTSUNNY   37  32  84 NW7       30.07R
MANTEO         MOCLDY    37  32  81 NW8       30.09R

$$

NCZ045>047-081-094-103-104-101400-
CENTRAL COAST

CITY           SKY/WX    TMP DP  RH WIND       PRES   REMARKS
FRISCO         CLEAR     40  32  73 NW14G23   30.09R

$$

NCZ095-097-098-100-101-101400-
SOUTHERN COAST

CITY           SKY/WX    TMP DP  RH WIND       PRES   REMARKS
BEAUFORT       CLEAR     35  30  82 NW17      30.15R
CEDAR ISLAND   NOT AVBL
JACKSONVILLE   CLEAR     33  30  88 W9        30.17R
PINEY ISLAND     N/A    N/A N/A N/A W18G28    30.13R
WILMINGTON     CLEAR     35  28  75 W8        30.19R


$$

NCZ011>013-027>030-043-044-078>080-089-090>093-098-101400-
COASTAL PLAIN

CITY           SKY/WX    TMP DP  RH WIND       PRES   REMARKS
AHOSKIE        CLEAR     29  28  96 CALM      30.12R
CLINTON        CLEAR     31  29  90 CALM      30.18R
ELIZABETHTOWN  NOT AVBL
GOLDSBORO      CLEAR     33  26  74 W8        30.14R
GREENVILLE     CLEAR     32  28  86 CALM      30.15R
HAVELOCK       CLEAR     34  32  92 W8        30.16R
KENANSVILLE    CLEAR     32  27  80 W6        30.17R
KINSTON        CLEAR     32  28  86 W5        30.16R
NEW BERN       CLEAR     33  29  85 W8        30.17R
RICHLANDS      CLEAR     34  31  88 W6        30.17R
ROCKY MOUNT    CLEAR     31  27  85 W6        30.14R
WASHINGTON     CLEAR     33  28  81 W3        30.14R
WHITEVILLE     CLEAR     32  29  90 W3        30.20R

$$

AMZ130-135-150-152-154-156-158-170-250-252-270-ANZ085-086-088-633-658-670-101400-
MARINE OBSERVATIONS

STATION/POSITION TIME  TEMP    WIND        PRES    WAVE   SWELL
                       AIR SEA DIR/SP/G            HT/PER HT/PER
                 (UTC) (F)     (DEG/KT/KT) (MB)    (FT/S) (FT/S)
CHESAPEAKE LIGHT NOT AVBL
64 E VA BEACH    1250   44 61  310/ 17/ 23 1016.9    7/ 9   3/ 9
DUCK             1248   36 53  300/ 13/ 16 1018.1
2 E DUCK         1300      54                N/A     4/ 8
OREGON INLET     1236   37 49  280/ 11/ 16 1018.3
13E OREGON INLT  1248      57                N/A     6/ 8   5/ 8
HATTERAS CG      1248   40 53  310/ 22/ 25 1018.6
DIAMOND BUOY     1250   44 68  310/ 21/ 31 1018.7    8/ 7   3/ 8
CAPE LOOKOUT     1300          320/ 20/ 24 1020.6
BEAUFORT LAB     1248   36 51  320/  7/ 14 1020.7
30 SE NEW RVR IN 1208   43 63  350/ 19/ 25 1020.6
30 SE NEW RVR IN 1300      63                N/A     8/ 6
27 SE WRIGHTSVLE 1208   44 66  330/ 25/ 39 1020.4
5 SE WRIGHTSVLE  1208   39 58  320/ 16/ 25 1020.7
225 S CAPE HAT   1250   61 75  300/ 23/ 29 1017.8   12/ 9   2/21
41 SE CHARLESTON 1250      73  340/ 19/ 25 1023.4    6/ 6

$$




USA.gov is the U.S. government's official web portal to all federal, state and local government web resources and services.